Humidity-temperature Sensor

Selected Measurement Type: Relative Humidity

 
Relative Humidity [%]     6 entries per hour
Showing data from 6/24/2015 (00:00:00 Z) to 6/23/2015 (00:01:00 Z)
Previous Next [ Day | 3-Days | 7-Days ]
First Last
Prev [ Day | 3-Days | 7-Days ] Next
First Last

Start Time:     :
End Time:     :     
Time (in GMT) :00 :50 :40 :30 :20 :10
Previous Next [ Day | 3-Days | 7-Days ]
First Last
Prev [ Day | 3-Days | 7-Days ] Next
First Last


123 => good data
MM => data is determined as missing
-- => data not received/configured
Back to Top Back to Top
6/24/2015 00:00 to 23:10 84.05 83.63 83.55 83.19 83.34 84.55
6/23/2015 23:00 to 22:10 84.11 82.82 82.82 82.61 82.25 83.28
6/23/2015 22:00 to 21:10 81.60 81.98 82.75 84.01 82.88 83.05
6/23/2015 21:00 to 20:10 83.13 81.88 83.03 82.84 82.38 82.36
6/23/2015 20:00 to 19:10 81.94 81.77 81.23 82.21 82.65 83.61
6/23/2015 19:00 to 18:10 82.11 82.21 81.81 81.88 82.36 81.54
6/23/2015 18:00 to 17:10 82.38 81.65 81.31 82.04 82.46 81.40
6/23/2015 17:00 to 16:10 82.27 81.71 82.04 82.98 83.86 82.44
6/23/2015 16:00 to 15:10 82.34 82.38 83.44 83.15 82.06 81.56
6/23/2015 15:00 to 14:10 81.60 82.19 82.48 81.48 81.81 81.65
6/23/2015 14:00 to 13:10 81.65 81.46 81.67 81.75 82.73 83.17
6/23/2015 13:00 to 12:10 84.26 83.78 83.97 83.61 83.55 83.42
6/23/2015 12:00 to 11:10 85.49 84.09 85.45 84.53 84.30 84.24
6/23/2015 11:00 to 10:10 83.11 83.11 84.51 83.84 84.45 83.84
6/23/2015 10:00 to 9:10 83.53 83.59 84.01 84.01 83.47 83.40
6/23/2015 09:00 to 8:10 83.42 84.43 84.47 84.30 83.97 83.36
6/23/2015 08:00 to 7:10 82.94 84.24 85.18 85.41 84.24 84.53
6/23/2015 07:00 to 6:10 84.47 84.78 84.87 84.72 86.02 87.73
6/23/2015 06:00 to 5:10 84.95 84.78 83.19 83.55 84.18 84.03
6/23/2015 05:00 to 4:10 83.59 84.74 85.35 84.07 84.13 83.53
6/23/2015 04:00 to 3:10 83.93 84.66 85.08 84.49 84.05 84.62
6/23/2015 03:00 to 2:10 85.12 85.79 86.23 85.43 85.33 85.95
6/23/2015 02:00 to 1:10 86.04 86.18 85.79 85.28 85.56 85.60
6/23/2015 01:00 to 0:10 85.45 85.68 85.43 85.03 84.72 84.59